sat.trackr.live / text

‹ back to catalog

QIANFAN-112

NORAD 68639 · 2026-075D

PAYLOAD ACTIVE UNKNOWN

§ Identity

Operator
Country
PRC
Launch date
2026-04-07
Launch site
WSC
Launch vehicle
Mass (kg)
RCS (m²)

External: N2YO · Heavens-Above · Gunter

§ Orbital elements

Epoch: 2026-09-20T02:58:22.049184Z

Period
106.59 min
Inclination
88.9863°
Eccentricity
0.0002282
Mean motion
13.51023672 rev/d
Perigee alt
1,066.8 km
Apogee alt
1,070.2 km
Semi-major
7,446.6 km
B*
4.8035e-5
RAAN
311.3133°
Arg perigee
84.2423°
Mean anomaly
275.8988°
Rev number
2,262

§ Raw data

QIANFAN-1121 68639U 26075D   26263.12386631  .00000043  00000+0  48035-4 0  99912 68639  88.9863 311.3133 0002282  84.2423 275.8988 13.51023672 22627

JSON: /api/v1/satellites/68639 · /tle

For live sub-satellite position, see the globe view (requires WebGL).

§ Visibility from observer

Set your observer location to see the next 7 days of passes ≥ 10°. The values pass through the URL so the page stays shareable.

No JS? Fill the form by hand. The geolocation button needs JavaScript.